Weather reports worldwide

Advertisment
Lulea/Kallax, Sweden (2186): temperature & dewpoint: 30.05.2020 08:00:00 - 05.06.2020 08:00:00 (CEST)Lulea/Kallax, Sweden (2186): wind speed & gusts: 30.05.2020 08:00:00 - 05.06.2020 08:00:00 (CEST)Lulea/Kallax, Sweden (2186): wind direction: 30.05.2020 08:00:00 - 05.06.2020 08:00:00 (CEST)Lulea/Kallax, Sweden (2186): reduced air pressure: 30.05.2020 08:00:00 - 05.06.2020 08:00:00 (CEST)Lulea/Kallax, Sweden (2186): visibility: 30.05.2020 08:00:00 - 05.06.2020 08:00:00 (CEST)Lulea/Kallax, Sweden (2186): precipitation: 30.05.2020 08:00:00 - 05.06.2020 08:00:00 (CEST)
Date & Time tt [°C] td [°C] ff [km/h] ff [kn] fx [km/h] fx [kn] dd ppp [hPa] vv [km] rr [mm]
05.06.2020 08:00:00 15,3 8,8 11 6 22 12 NE 1004,2 10 0,0
05.06.2020 07:00:00 15,1 9,2 5 3 11 6 NNE 1004,5 10 0,0
05.06.2020 06:00:00 14,4 8,6 4 2 7 4 ENE 1004,8 10 0,0
05.06.2020 05:00:00 15,0 8,7 8 4 22 12 ESE 1004,8 10 0,0
05.06.2020 04:00:00 15,3 9,2 9 5 18 10 ENE 1004,8 10 0,0
05.06.2020 03:00:00 15,4 9,3 11 6 22 12 NE 1004,9 10 0,0
05.06.2020 02:00:00 15,7 9,4 11 6 22 12 NE 1005,2 10 0,0
05.06.2020 01:00:00 14,5 7,5 8 4 14 8 N 1005,6 10 0,0
05.06.2020 00:00:00 14,8 6,6 8 4 14 8 N 1006,0 10 0,0
04.06.2020 23:00:00 16,2 5,2 5 3 11 6 N 1006,4 10 0,0
04.06.2020 22:00:00 17,5 4,1 5 3 7 4 N 1006,9 10 0,0
04.06.2020 21:00:00 18,5 3,9 4 2 11 6 NNE 1007,2 10 0,0
04.06.2020 20:00:00 19,5 3,2 5 3 11 6 E 1007,5 10 0,0
04.06.2020 19:00:00 19,8 3,5 9 5 18 10 E 1007,8 10 0,0
04.06.2020 18:00:00 19,8 3,9 11 6 18 10 E 1008,0 10 0,0
04.06.2020 17:00:00 19,8 3,9 13 7 18 10 E 1008,6 10 0,0
04.06.2020 16:00:00 19,3 3,5 8 4 14 8 SE 1009,0 10 0,0
04.06.2020 15:00:00 19,0 3,6 11 6 14 8 SSE 1009,5 10 0,0
04.06.2020 14:00:00 18,5 4,3 13 7 18 10 SSE 1009,9 10 0,0
04.06.2020 13:00:00 17,9 5,1 9 5 14 8 SSE 1010,0 10 0,0
04.06.2020 12:00:00 17,2 9,1 8 4 18 10 SE 1010,4 10 0,0
04.06.2020 11:00:00 16,3 7,8 13 7 22 12 E 1010,6 10 0,0
04.06.2020 10:00:00 14,8 8,1 8 4 14 8 E 1010,6 10 0,0
04.06.2020 09:00:00 13,3 8,6 5 3 7 4 ENE 1010,7 10 0,0
04.06.2020 08:00:00 12,1 8,9 4 2 7 4 - 1010,7 10 0,0
04.06.2020 07:00:00 12,3 9,5 0 0 11 6 N 1010,9 10 0,0
04.06.2020 06:00:00 11,2 8,9 0 0 4 2 N 1010,9 10 0,0
04.06.2020 05:00:00 10,7 9,5 4 2 7 4 SSE 1011,0 10 0,0
04.06.2020 04:00:00 10,3 9,5 0 0 4 2 N 1011,3 10 0,0
04.06.2020 03:00:00 9,8 9,5 0 0 7 4 N 1011,1 10 0,0
04.06.2020 02:00:00 10,2 9,9 5 3 7 4 E 1011,2 10 0,0
04.06.2020 01:00:00 11,2 10,9 4 2 7 4 - 1011,2 0,7 0,0
04.06.2020 00:00:00 11,1 10,5 5 3 7 4 ESE 1011,4 10 0,0
03.06.2020 23:00:00 12,7 11,6 2 1 4 2 - 1011,5 10 0,0
03.06.2020 22:00:00 13,2 11,9 0 0 7 4 N 1011,7 10 0,0
03.06.2020 21:00:00 13,0 11,7 4 2 11 6 - 1011,5 10 0,0
03.06.2020 20:00:00 13,4 12,0 8 4 14 8 E 1011,5 10 0,0
03.06.2020 19:00:00 13,5 11,7 5 3 11 6 NE 1011,7 10 0,0
03.06.2020 18:00:00 13,7 11,4 5 3 14 8 NNE 1012,0 10 0,0
03.06.2020 17:00:00 13,7 11,7 8 4 14 8 N 1012,4 10 0,0
03.06.2020 16:00:00 13,9 11,9 9 5 14 8 NNE 1012,2 10 0,0
03.06.2020 15:00:00 13,4 11,6 8 4 14 8 N 1013,0 10 0,0
03.06.2020 14:00:00 13,2 11,3 4 2 11 6 - 1013,3 10 0,0
03.06.2020 13:00:00 12,8 11,4 5 3 11 6 E 1013,4 10 0,0
03.06.2020 12:00:00 11,7 10,9 11 6 14 8 SSE 1013,5 10 0,0
03.06.2020 11:00:00 12,8 12,0 8 4 14 8 E 1013,5 10 0,0
03.06.2020 10:00:00 13,0 12,1 5 3 14 8 NNE 1013,4 10 0,0
03.06.2020 09:00:00 13,1 12,4 4 2 11 6 N 1013,2 10 0,7
03.06.2020 08:00:00 12,5 11,7 0 0 7 4 N 1013,3 9 3,0
03.06.2020 07:00:00 12,4 11,3 2 1 7 4 - 1013,2 10 2,0
03.06.2020 06:00:00 12,2 10,6 4 2 14 8 - 1013,3 10 0,0
03.06.2020 05:00:00 11,4 10,6 8 4 14 8 S 1013,3 10 0,0
03.06.2020 04:00:00 11,0 10,4 9 5 14 8 SSE 1013,0 10 0,0
03.06.2020 03:00:00 12,2 11,4 9 5 14 8 ESE 1013,3 10 0,3
03.06.2020 02:00:00 12,8 11,5 11 6 14 8 SSE 1013,7 10 0,7
03.06.2020 01:00:00 12,9 12,1 2 1 7 4 - 1013,9 10 0,0
03.06.2020 00:00:00 12,9 12,0 5 3 14 8 ESE 1013,9 10 0,0
02.06.2020 23:00:00 13,0 11,7 11 6 14 8 WSW 1014,2 10 0,0
02.06.2020 22:00:00 13,4 12,0 4 2 14 8 - 1014,6 9 2,0
02.06.2020 21:00:00 12,6 10,3 11 6 22 12 S 1014,5 10 0,0
02.06.2020 20:00:00 13,7 11,2 8 4 18 10 SE 1013,5 10 0,0
02.06.2020 19:00:00 14,8 11,2 2 1 14 8 - 1013,8 10 0,0
02.06.2020 18:00:00 14,0 9,8 5 3 22 12 SSW 1015,0 10 0,0
02.06.2020 17:00:00 14,3 9,7 5 3 22 12 S 1015,1 10 0,0
02.06.2020 16:00:00 13,9 8,9 18 10 29 16 S 1016,4 10 0,0
02.06.2020 15:00:00 15,4 8,6 21 11 29 16 S 1016,1 10 0,0
02.06.2020 14:00:00 14,9 8,8 16 9 25 14 SSE 1016,8 10 0,0
02.06.2020 13:00:00 15,6 9,3 18 10 22 12 SE 1017,2 10 0,0
02.06.2020 12:00:00 15,4 9,3 16 9 22 12 SE 1017,8 10 0,0
02.06.2020 11:00:00 15,0 9,8 21 11 25 14 SE 1018,0 10 0,0
02.06.2020 10:00:00 15,0 9,8 18 10 22 12 SE 1018,8 10 0,0
02.06.2020 09:00:00 14,2 9,6 18 10 25 14 SSE 1018,8 10 0,0
02.06.2020 08:00:00 14,6 9,4 18 10 22 12 SSE 1018,8 10 0,0
02.06.2020 07:00:00 14,8 7,6 11 6 18 10 S 1019,3 10 0,0
02.06.2020 06:00:00 14,2 7,9 8 4 14 8 S 1019,8 10 0,0
02.06.2020 05:00:00 13,3 7,7 4 2 14 8 - 1020,2 10 0,0
02.06.2020 04:00:00 11,5 8,0 8 4 14 8 SE 1020,3 10 0,0
02.06.2020 03:00:00 10,3 6,4 2 1 11 6 - 1020,9 10 0,0
02.06.2020 02:00:00 10,9 7,9 5 3 14 8 S 1021,1 10 0,0
02.06.2020 01:00:00 11,4 8,8 8 4 11 6 SE 1021,9 10 0,0
02.06.2020 00:00:00 10,9 8,3 9 5 11 6 SE 1022,2 10 0,0
01.06.2020 23:00:00 12,4 7,9 5 3 7 4 SSE 1022,2 10 0,0
01.06.2020 22:00:00 15,8 5,1 4 2 7 4 - 1022,3 10 0,0
01.06.2020 21:00:00 16,6 5,2 5 3 11 6 S 1022,5 10 0,0
01.06.2020 20:00:00 17,5 5,1 9 5 14 8 SSW 1022,8 10 0,0
01.06.2020 19:00:00 17,2 6,1 13 7 18 10 SSW 1023,2 10 0,0
01.06.2020 18:00:00 17,1 6,6 11 6 14 8 S 1023,7 10 0,0
01.06.2020 17:00:00 17,6 7,1 15 8 18 10 S 1024,3 10 0,0
01.06.2020 16:00:00 17,7 7,7 13 7 18 10 SE 1024,6 10 0,0
01.06.2020 15:00:00 18,5 7,6 13 7 18 10 SE 1025,1 10 0,0
01.06.2020 14:00:00 18,9 7,3 16 9 22 12 SSE 1025,7 10 0,0
01.06.2020 13:00:00 19,3 6,7 16 9 22 12 S 1026,0 10 0,0
01.06.2020 12:00:00 19,8 6,9 18 10 22 12 SSE 1026,3 10 0,0
01.06.2020 11:00:00 20,7 6,6 13 7 18 10 SSE 1026,8 10 0,0
01.06.2020 10:00:00 21,1 5,8 8 4 14 8 N 1027,1 10 0,0
01.06.2020 09:00:00 19,9 5,9 9 5 18 10 N 1027,3 10 0,0
01.06.2020 08:00:00 18,3 5,2 11 6 18 10 N 1027,7 10 0,0
01.06.2020 07:00:00 17,1 5,4 9 5 18 10 N 1027,8 10 0,0
01.06.2020 06:00:00 15,8 6,0 8 4 14 8 N 1028,1 10 0,0
01.06.2020 05:00:00 13,7 7,0 8 4 14 8 NNW 1028,3 10 0,0
01.06.2020 04:00:00 10,3 6,5 9 5 14 8 NW 1028,5 10 0,0
01.06.2020 03:00:00 10,5 6,4 8 4 11 6 NW 1028,4 10 0,0
01.06.2020 02:00:00 11,1 6,8 5 3 11 6 N 1028,4 10 0,0
01.06.2020 01:00:00 9,6 6,3 8 4 11 6 NW 1028,6 10 0,0
01.06.2020 00:00:00 9,6 6,3 2 1 4 2 NNW 1028,5 10 0,0
31.05.2020 23:00:00 10,5 6,6 2 1 7 4 - 1028,6 10 0,0
31.05.2020 22:00:00 11,7 6,6 0 0 7 4 N 1028,7 10 0,0
31.05.2020 21:00:00 12,3 6,1 5 3 11 6 SSE 1028,6 10 0,0
31.05.2020 20:00:00 14,0 5,4 8 4 18 10 SSE 1028,7 10 0,0
31.05.2020 19:00:00 14,4 5,5 11 6 18 10 S 1028,9 10 0,0
31.05.2020 18:00:00 15,0 5,5 15 8 25 14 S 1029,1 10 0,0
31.05.2020 17:00:00 14,3 4,8 18 10 29 16 SSW 1029,4 10 0,0
31.05.2020 16:00:00 16,2 2,9 16 9 25 14 SSE 1029,7 10 0,0
31.05.2020 15:00:00 15,7 2,5 18 10 32 18 SE 1030,4 10 0,0
31.05.2020 14:00:00 17,3 2,8 18 10 29 16 S 1030,5 10 0,0
31.05.2020 13:00:00 17,1 3,4 16 9 25 14 SSW 1031,0 10 0,0
31.05.2020 12:00:00 17,4 2,9 15 8 22 12 S 1031,8 10 0,0
31.05.2020 11:00:00 17,7 2,8 13 7 18 10 SE 1032,3 10 0,0
31.05.2020 10:00:00 16,9 2,5 9 5 14 8 SE 1032,7 10 0,0
31.05.2020 09:00:00 16,5 2,5 4 2 14 8 - 1033,0 10 0,0
31.05.2020 08:00:00 14,1 2,6 8 4 11 6 NNW 1033,4 10 0,0
31.05.2020 07:00:00 13,3 2,8 9 5 14 8 N 1033,5 10 0,0
31.05.2020 06:00:00 11,7 3,2 8 4 14 8 N 1033,6 10 0,0
31.05.2020 05:00:00 10,3 3,8 5 3 11 6 N 1033,4 10 0,0
31.05.2020 04:00:00 9,1 4,1 8 4 14 8 N 1033,6 10 0,0
31.05.2020 03:00:00 9,1 3,7 9 5 14 8 N 1033,6 10 0,0
31.05.2020 02:00:00 7,6 3,1 4 2 7 4 N 1033,4 10 0,0
31.05.2020 01:00:00 8,4 2,8 0 0 4 2 N 1033,3 10 0,0
31.05.2020 00:00:00 10,4 3,2 4 2 7 4 - 1033,3 10 0,0
30.05.2020 23:00:00 11,3 2,8 5 3 11 6 WSW 1033,2 10 0,0
30.05.2020 22:00:00 12,4 2,5 8 4 14 8 WSW 1033,0 10 0,0
30.05.2020 21:00:00 13,4 2,6 9 5 18 10 SW 1032,9 10 0,0
30.05.2020 20:00:00 14,0 2,9 15 8 18 10 SW 1032,5 10 0,0
30.05.2020 19:00:00 14,3 2,2 13 7 18 10 SSW 1032,5 10 0,0
30.05.2020 18:00:00 14,7 3,2 15 8 22 12 S 1032,6 10 0,0
30.05.2020 17:00:00 15,3 2,8 16 9 22 12 S 1032,9 10 0,0
30.05.2020 16:00:00 15,5 2,8 13 7 18 10 S 1032,8 10 0,0
30.05.2020 15:00:00 15,4 3,2 15 8 22 12 S 1033,1 10 0,0
30.05.2020 14:00:00 15,0 3,5 16 9 22 12 S 1033,3 10 0,0
30.05.2020 13:00:00 14,0 3,7 15 8 22 12 S 1033,3 10 0,0
30.05.2020 12:00:00 13,9 3,1 15 8 22 12 SSE 1033,4 10 0,0
30.05.2020 11:00:00 14,4 1,3 11 6 22 12 NNE 1033,2 10 0,0
30.05.2020 10:00:00 13,7 2,0 11 6 22 12 N 1033,2 10 0,0
30.05.2020 09:00:00 12,6 3,3 9 5 22 12 N 1032,8 10 0,0
30.05.2020 08:00:00 11,5 3,3 11 6 22 12 N 1032,4 10 0,0

tt = temperature
td = dewpoint
ff = wind speed
fx = gusts
dd = wind direction
ppp = reduced air pressure
vv = visibility
rr = precipitation

Next stations